Change the Weather History Date:

Tuesday, March 5, 2013

  Actual Average Record
Temperature  
Mean Temperature 36 °F -  
Max Temperature 44 °F 43 °F 57 °F (1965)
Min Temperature 28 °F 26 °F 4 °F (1950)
Degree Days  
Heating Degree Days 29    
Moisture  
Dew Point 28 °F    
Average Humidity 71    
Maximum Humidity 96    
Minimum Humidity 55    
Precipitation  
Precipitation 0.00 in - - ()
Sea Level Pressure  
Sea Level Pressure 29.92 in    
Wind  
Wind Speed 13 mph (NNW)    
Max Wind Speed 18 mph    
Max Gust Speed 24 mph    
Visibility 10 miles    
Events      
Averages and records for this station are not official NWS values.
T = Trace of Precipitation, MM = Missing Value Source: NWS Daily Summary

Daily Weather History Graph

Daily Weather History Graph

Search for Another Location

Airport or City:

Trip Planner

Search our weather history database for the weather conditions in past years. The results will help you decide how hot, cold, wet, or windy it might be!

Date:

Astronomy

Mar. 05, 2013 Rise Set
Actual Time 6:10 AM EST 5:38 PM EST
Civil Twilight 5:42 AM EST 6:05 PM EST
Nautical Twilight 5:10 AM EST 6:37 PM EST
Astronomical Twilight 4:38 AM EST 7:09 PM EST
Moon 1:22 AM EST (3/5) 11:11 AM EST (3/5)
Length of Visible Light 12h 23m
Length of Day
11h 27m
Last Quarter, 41% of the Moon is Illuminated
Mar 5
Last Quarter
Mar 11
New
Mar 19
First Quarter
Mar 27
Full
Apr 3
Last Quarter

Hourly Weather History & Observations

Time (EST) Temp. Windchill Dew Point Humidity Pressure Visibility Wind Dir Wind Speed Gust Speed Precip Events Conditions
12:53 AM 35.1 °F 26.9 °F 24.1 °F 64% 29.73 in 10.0 mi NW 11.5 mph 23.0 mph N/A   Overcast
2:53 AM 34.0 °F 24.6 °F 23.0 °F 64% 29.75 in 10.0 mi NW 13.8 mph 23.0 mph N/A   Overcast
3:53 AM 34.0 °F 24.2 °F 23.0 °F 64% 29.77 in 10.0 mi NW 15.0 mph 23.0 mph N/A   Overcast
4:53 AM 32.0 °F 23.0 °F 23.0 °F 69% 29.81 in 10.0 mi NW 11.5 mph 19.6 mph N/A   Partly Cloudy
5:53 AM 32.0 °F 22.5 °F 23.0 °F 69% 29.83 in 10.0 mi NNW 12.7 mph - N/A   Mostly Cloudy
6:49 AM 33.8 °F 23.9 °F 23.0 °F 65% 29.85 in 10.0 mi NW 15.0 mph 21.9 mph N/A   Overcast
6:53 AM 34.0 °F 26.0 °F 24.1 °F 67% 29.86 in 10.0 mi NW 10.4 mph 21.9 mph N/A   Overcast
8:01 AM 35.6 °F 27.1 °F 24.8 °F 65% 29.87 in 10.0 mi NNW 12.7 mph 23.0 mph N/A   Overcast
8:22 AM 35.6 °F 26.2 °F 24.8 °F 65% 29.88 in 10.0 mi NNW 15.0 mph - N/A   Overcast
8:53 AM 37.9 °F 29.2 °F 25.0 °F 60% 29.89 in 10.0 mi NNW 15.0 mph 20.7 mph N/A   Partly Cloudy
9:53 AM 39.9 °F 31.1 °F 26.1 °F 58% 29.90 in 10.0 mi NNW 17.3 mph 21.9 mph N/A   Mostly Cloudy
10:53 AM 42.1 °F 33.6 °F 28.0 °F 58% 29.91 in 10.0 mi NNW 18.4 mph 23.0 mph N/A   Overcast
11:26 AM 42.8 °F 34.8 °F 28.4 °F 57% 29.91 in 10.0 mi NNW 17.3 mph - N/A   Overcast
11:53 AM 44.1 °F 36.5 °F 28.9 °F 55% 29.91 in 10.0 mi NNW 17.3 mph 23.0 mph N/A   Overcast
12:53 PM 44.1 °F 37.1 °F 30.0 °F 58% 29.91 in 10.0 mi North 15.0 mph 24.2 mph N/A   Mostly Cloudy
1:53 PM 43.0 °F 35.7 °F 30.9 °F 62% 29.92 in 10.0 mi NNE 15.0 mph - N/A   Overcast
2:53 PM 42.1 °F 36.1 °F 33.1 °F 70% 29.95 in 10.0 mi North 10.4 mph - 0.00 in   Overcast
3:15 PM 42.8 °F 35.4 °F 33.8 °F 70% 29.96 in 10.0 mi North 15.0 mph - N/A   Overcast
3:53 PM 41.0 °F 33.1 °F 32.0 °F 70% 29.97 in 10.0 mi North 15.0 mph 19.6 mph N/A   Overcast
4:50 PM 39.2 °F 33.0 °F 33.8 °F 81% 29.99 in 10.0 mi North 9.2 mph - N/A   Overcast
4:53 PM 39.9 °F 32.9 °F 32.0 °F 73% 29.99 in 10.0 mi NNE 11.5 mph - N/A   Overcast
5:53 PM 37.9 °F 31.5 °F 33.1 °F 83% 30.01 in 10.0 mi NNE 9.2 mph - N/A   Scattered Clouds
6:53 PM 36.0 °F 31.1 °F 32.0 °F 86% 30.02 in 10.0 mi North 5.8 mph - N/A   Clear
7:53 PM 35.1 °F 29.3 °F 32.0 °F 89% 30.02 in 10.0 mi North 6.9 mph - N/A   Clear
8:53 PM 34.0 °F 27.2 °F 32.0 °F 92% 30.02 in 10.0 mi North 8.1 mph - N/A   Clear
9:53 PM 35.1 °F 30.1 °F 30.9 °F 85% 30.02 in 10.0 mi NNE 5.8 mph - N/A   Partly Cloudy
10:53 PM 28.0 °F 24.2 °F 27.0 °F 96% 30.04 in 10.0 mi NW 3.5 mph - N/A   Clear
11:53 PM 33.1 °F 26.9 °F 32.0 °F 96% 30.01 in 10.0 mi North 6.9 mph - N/A   Scattered Clouds